User: anonymous   Login
Location: Arrodets-la-Barthe
(43.0306°N, 0.2829°E)
Time: 17:55:36
(UTC+00:00)
Language:

COSMOS 1867 COOLANT - Orbit

View from above orbital plane
View from above orbital plane
View from above satellite
View from above satellite

Ground track
Ground track

The orbit data is extracted from the following two-line orbital elements,

1 39644U 87060M   22222.86626599  .00000133  00000-0  85968-4 0  9995
2 39644  65.0120 352.9882 0015575 259.4484 100.4847 14.32406681436213
Epoch (UTC): 10 August 2022 20:47:25
Eccentricity: 0.0015575
inclination: 65.0120°
perigee height: 772 km
apogee height: 795 km
right ascension of ascending node: 352.9882°
argument of perigee: 259.4484°
revolutions per day: 14.32406681
mean anomaly at epoch: 100.4847°
orbit number at epoch: 43621

The dashed part of the orbit path shows where the satellite is in the earth's shadow,  

DLR